This demonstration page uses our WeatherBlox Daily Observations layout. Learn more.

Left ArrowRight Arrow

39.01783, -85.05884

Hourly Observations for December 9, 2020

Temp ( °F °C ) Dew Point ( °F °C ) Humidity (%) Winds ( mph kmh ) Pressure ( in mb ) Visibility ( mi km ) Precip ( " mm )
12:52 am 00:52 Cloudy 32 undefined 25 -3.9 75 75 SSW 8 13 30.01 1016 9 14 N/A
1:52 am 01:52 Cloudy 33 0.6 26 -3.3 75 75 SW 10 17 29.98 1015 9 14 N/A
2:52 am 02:52 Mostly Cloudy 32 undefined 26 -3.3 79 79 SW 8 13 29.98 1015 8 13 N/A
3:52 am 03:52 Cloudy 33 0.6 26 -3.3 75 75 SSW 10 17 29.96 1015 8 13 N/A
4:52 am 04:52 Cloudy 34 1.1 27 -2.8 76 76 SSW 8 13 29.95 1014 8 13 N/A
5:52 am 05:52 Mostly Cloudy 34 1.1 27 -2.8 76 76 SSW 10 17 29.93 1014 8 13 N/A
6:52 am 06:52 Mostly Cloudy 34 1.1 28 -2.2 79 79 SSW 10 17 29.91 1013 8 13 N/A
7:52 am 07:52 Mostly Cloudy with Haze 35 1.7 29 -1.7 78 78 SW 8 13 29.92 1013 6 10 N/A
8:52 am 08:52 Mostly Cloudy with Haze 36 2.2 29 -1.7 76 76 SW 10 17 29.93 1013 6 10 N/A
9:52 am 09:52 Partly Cloudy 39 3.9 31 -0.6 73 73 SW 7 11 29.94 1014 7 11 N/A
10:52 am 10:52 Partly Cloudy 43 6.1 32 undefined 65 65 SW 13 20 29.93 1014 8 13 N/A
11:52 am 11:52 Partly Cloudy 47 8.3 33 0.6 59 59 W 13 20 29.91 1013 8 13 N/A
12:52 pm 12:52 Mostly Sunny 50 10 33 0.6 52 52 W 15 24 29.88 1012 9 14 N/A
1:52 pm 13:52 Mostly Sunny 53 11.7 33 0.6 47 47 W 17 28 29.87 1011 10 16 N/A
2:52 pm 14:52 Sunny 54 12.2 32 undefined 43 43 WSW 14 22 29.86 1011 10 16 N/A
3:52 pm 15:52 Sunny 55 12.8 33 0.6 44 44 W 13 20 29.88 1012 10 16 N/A
4:52 pm 16:52 Sunny 53 11.7 32 undefined 45 45 WSW 10 17 29.89 1012 10 16 N/A
5:52 pm 17:52 Clear 49 9.4 32 undefined 52 52 N N/A 29.91 1013 10 16 N/A
6:52 pm 18:52 Clear 44 6.7 31 -0.6 60 60 N N/A 29.94 1014 10 16 N/A
7:52 pm 19:52 Clear 43 6.1 31 -0.6 63 63 N N/A 29.97 1015 10 16 N/A
8:52 pm 20:52 Clear 41 5 31 -0.6 67 67 WSW 3 6 29.98 1015 10 16 N/A
9:52 pm 21:52 Clear 38 3.3 30 -1.1 73 73 WSW 5 7 29.99 1016 10 16 N/A
10:52 pm 22:52 Clear 37 2.8 30 -1.1 76 76 N N/A 30.01 1016 10 16 N/A
11:52 pm 23:52 Clear 41 5 32 undefined 70 70 WSW 3 6 30.00 1016 10 16 N/A

Powered by AerisWeather